Cedar Falls, IA

9:54 PM CDT on July 28, 2016 (GMT -0500)
Waterloo Municipal

Weather History for KALO - October, 2013

Change the Weather History Date:

Tuesday, October 8, 2013

  Actual Average Record
Temperature  
Mean Temperature 61 °F 53 °F  
Max Temperature 77 °F 66 °F 90 °F (1916)
Min Temperature 45 °F 41 °F 21 °F (1976)
Degree Days  
Heating Degree Days 4 12  
Month to date heating degree days 42 88  
Since 1 July heating degree days 164 246  
Cooling Degree Days 0 1  
Month to date cooling degree days 7 8  
Year to date cooling degree days 836 798  
Growing Degree Days 11 (Base 50)    
Moisture  
Dew Point 43 °F    
Average Humidity 60    
Maximum Humidity 93    
Minimum Humidity 26    
Precipitation  
Precipitation 0.00 in 0.08 in 1.63 in (1970)
Month to date precipitation 0.93 0.70  
Year to date precipitation 36.70 29.61  
Snow  
Snow 0.00 in 0.00 in - ()
Month to date snowfall 0.0 0.0  
Since 1 July snowfall 0.0 0.0  
Since 1 September snowfall 0.0 0.0  
Snow Depth 0.00 in    
Sea Level Pressure  
Sea Level Pressure 30.04 in    
Wind  
Wind Speed 12 mph (South)    
Max Wind Speed 24 mph    
Max Gust Speed 30 mph    
Visibility 10 miles    
Events      
T = Trace of Precipitation, MM = Missing Value Source: NWS Daily Summary

Daily Weather History Graph

Daily Weather History Graph

Search for Another Location

Airport or City:

Trip Planner

Search our weather history database for the weather conditions in past years. The results will help you decide how hot, cold, wet, or windy it might be!

Date:

Astronomy

Oct. 08, 2013 Rise Set
Actual Time 7:14 AM CDT 6:38 PM CDT
Civil Twilight 6:46 AM CDT 7:06 PM CDT
Nautical Twilight 6:14 AM CDT 7:39 PM CDT
Astronomical Twilight 5:41 AM CDT 8:11 PM CDT
Moon 11:14 AM CDT (10/8) 9:10 PM CDT (10/8)
Length of Visible Light 12h 19m
Length of Day
11h 23m
Waxing Crescent, 16% of the Moon is Illuminated
Oct 8
Waxing Crescent
Oct 11
First Quarter
Oct 18
Full
Oct 26
Last Quarter
Nov 3
New

Hourly Weather History & Observations

Time (CDT) Temp. Windchill Dew Point Humidity Pressure Visibility Wind Dir Wind Speed Gust Speed Precip Events Conditions
12:54 AM 46.0 °F 44.8 °F 43.0 °F 89% 30.04 in 10.0 mi SE 3.5 mph - N/A   Clear
1:54 AM 46.9 °F - 44.1 °F 90% 30.04 in 10.0 mi SE 3.5 mph - N/A   Clear
2:54 AM 48.0 °F - 43.0 °F 83% 30.04 in 10.0 mi SSE 4.6 mph - N/A   Clear
3:54 AM 46.9 °F - 42.1 °F 83% 30.05 in 10.0 mi SE 3.5 mph - N/A   Clear
4:54 AM 46.9 °F - 43.0 °F 86% 30.05 in 10.0 mi SSE 5.8 mph - N/A   Clear
5:54 AM 46.9 °F - 43.0 °F 86% 30.06 in 10.0 mi SSE 5.8 mph - N/A   Clear
6:54 AM 48.0 °F - 44.1 °F 86% 30.06 in 10.0 mi South 6.9 mph - N/A   Clear
7:54 AM 48.9 °F - 44.1 °F 83% 30.08 in 10.0 mi SSE 5.8 mph - N/A   Clear
8:54 AM 55.0 °F - 46.9 °F 74% 30.08 in 10.0 mi South 9.2 mph - N/A   Clear
9:54 AM 61.0 °F - 46.0 °F 58% 30.08 in 10.0 mi South 11.5 mph - N/A   Clear
10:54 AM 68.0 °F - 46.0 °F 45% 30.06 in 10.0 mi South 11.5 mph - N/A   Clear
11:54 AM 72.0 °F - 43.0 °F 35% 30.05 in 10.0 mi South 19.6 mph 25.3 mph N/A   Clear
12:54 PM 73.9 °F - 42.1 °F 32% 30.04 in 10.0 mi South 19.6 mph 27.6 mph N/A   Clear
1:54 PM 75.9 °F - 39.9 °F 27% 30.01 in 10.0 mi SSW 20.7 mph 28.8 mph N/A   Clear
2:54 PM 77.0 °F - 39.9 °F 26% 29.99 in 10.0 mi South 23.0 mph 28.8 mph N/A   Clear
3:54 PM 75.9 °F - 41.0 °F 29% 29.99 in 10.0 mi South 17.3 mph 23.0 mph N/A   Clear
4:54 PM 75.0 °F - 41.0 °F 29% 29.99 in 10.0 mi South 19.6 mph 25.3 mph N/A   Clear
5:54 PM 73.0 °F - 41.0 °F 31% 29.99 in 10.0 mi South 15.0 mph - N/A   Clear
6:54 PM 69.1 °F - 41.0 °F 36% 30.00 in 10.0 mi South 13.8 mph - N/A   Clear
7:54 PM 66.0 °F - 43.0 °F 43% 30.01 in 10.0 mi South 11.5 mph - N/A   Clear
8:54 PM 64.0 °F - 44.1 °F 48% 30.03 in 10.0 mi South 11.5 mph - N/A   Clear
9:54 PM 63.0 °F - 45.0 °F 52% 30.03 in 10.0 mi South 10.4 mph - N/A   Clear
10:54 PM 61.0 °F - 45.0 °F 56% 30.04 in 10.0 mi South 10.4 mph - N/A   Clear
11:54 PM 60.1 °F - 45.0 °F 57% 30.04 in 10.0 mi South 10.4 mph - N/A   Clear